Regional Weather Roundup
Issued by NWS

Home | Current Version | Previous Version | Graphics & Text | Print | Product List | Glossary On
Versions: 1 2 3 4 5 6 7 8 9 10 11 12 13 14 15 16 17 18 19 20 21 22 23 24 25 26 27 28
000
ASUS45 KSLC 250210
RWRUT

UTAH REGIONAL WEATHER ROUNDUP
NATIONAL WEATHER SERVICE SALT LAKE CITY UT
800 PM MDT SAT SEP 24 2016

UTZ001>011-023>025-250300-

NORTHERN UTAH

CITY           SKY/WX    TMP DP  RH WIND       PRES   REMARKS
BRIGHAM CITY     N/A     55  47  73 E3        30.33R
HILL AFB       CLEAR     56  42  58 SE5       30.33R
LOGAN          CLEAR     54  43  66 CALM      30.31R
OGDEN          CLEAR     54  44  69 CALM      30.32R
PROVO AIRPORT  CLEAR     54  44  69 SE5       30.33S
SALT LAKE CITY PTCLDY    57  47  69 CALM      30.31R
VERNAL         PTCLDY    53  32  44 N10       30.28R
WENDOVER       CLEAR     59  45  58 S5        30.32R
HEBER CITY     PTCLDY    50  34  53 N6        30.33R
WEST JORDAN    CLEAR     55  42  59 W3        30.33S

$$

UTZ012>022-026-027-250300-

SOUTHERN/CENTRAL UTAH

CITY           SKY/WX    TMP DP  RH WIND       PRES   REMARKS
BLANDING       CLOUDY    56  34  44 NW8       30.33R
BRYCE CANYON   PTCLDY    47  33  58 N13       30.37R
CEDAR CITY     CLEAR     55  35  47 NE9       30.30R
DELTA          CLEAR     54  37  54 NW6       30.32R
MILFORD        CLEAR     58  38  47 NE8       30.30R
MOAB/CYNLANDS  CLOUDY    61  42  49 NE8       30.23R
PRICE          CLEAR     51  35  54 NW12G23   30.31R
ST GEORGE      PTCLDY    73  34  23 NE9       30.14R

$$

REGIONAL REPORTS     COLORADO/ARIZONA

CITY           SKY/WX    TMP DP  RH WIND       PRES   REMARKS
CRAIG, CO      LGT RAIN  45  42  89 CALM      30.35R
GRAND JUNCTION CLOUDY    55  43  63 N6        30.28R
RIFLE          CLOUDY    50  45  83 CALM      30.32R
MONTROSE       CLOUDY    54  41  61 CALM      30.31R
CORTEZ         CLOUDY    53  42  66 N3        30.25R
PAGE, AZ       MOCLDY    68  35  29 E6        30.17R
GRAND CANYON   CLEAR     50  38  63 CALM      30.28S
KINGMAN        CLEAR     71  32  23 N13       30.12R
FLAGSTAFF      CLEAR     52  30  43 NE5       30.26R

$$

REGIONAL REPORTS    NEVADA/IDAHO/WYOMING

CITY           SKY/WX    TMP DP  RH WIND       PRES   REMARKS
LAS VEGAS, NV  PTCLDY    82  26  13 CALM      30.06R
ELY            CLEAR     55  32  41 NW9       30.36R
ELKO           CLEAR     62  26  25 NW6       30.35R
POCATELLO, ID  PTCLDY    55  37  50 SW18      30.33R
BURLEY         CLEAR     50  39  66 SW8       30.31R
EVANSTON, WY   CLOUDY    43  33  68 W8        30.39R
ROCK SPRINGS   CLOUDY    45  35  68 W12       30.32R

$$




USA.gov is the U.S. government's official web portal to all federal, state and local government web resources and services.